QPF
0.00 0.00 0.00 0.00 0.00 0.00 0.00 0.00 0.00 0.00 0.00 0.00 0.00 0.00 0.00 0.00 0.00 0.00 0.00 0.00 0.00 0.00 0.00 0.00 0.00 0.00 0.00 0.00 0.00 0.00 0.00 0.00 0.00 0.00 0.00 0.00 0.00 0.00 0.00 0.00 0.00 0.00 0.00
0.00 0.00 0.00 0.00 0.00 0.00 0.00 0.00 0.00 0.00 0.00 0.00 0.00 0.00 0.00 0.00 0.00 0.00 0.00 0.00 0.00 0.00 0.00 0.00 0.00 0.00 0.00 0.00 0.00 0.00 0.00 0.00 0.00 0.00 0.00 0.00 0.00 0.00 0.00 0.00 0.00 0.00 0.00
0.00 0.00 0.00 0.00 0.00 0.00 0.00 0.00 0.00 0.00 0.00 0.00 0.00 0.00 0.00 0.00 0.00 0.00 0.00 0.00 0.00 0.00 0.00 0.00 0.00 0.00 0.00 0.00 0.00 0.00 0.00 0.00 0.00 0.00 0.00 0.00 0.00 0.00 0.00 0.00 0.00 0.00 0.00
0.00 0.00 0.00 0.00 0.00 0.00 0.00 0.00 0.00 0.00 0.00 0.00 0.00 0.00 0.00 0.00 0.00 0.00 0.00 0.00 0.00 0.00 0.00 0.00 0.00 0.00 0.00 0.00 0.00 0.00 0.00 0.00 0.00 0.00 0.04 0.03 0.00 0.00 0.00 0.00 0.00 0.00 0.00
0.00 0.00 0.00 0.00 0.00 0.00 0.00 0.00 0.00 0.00 0.00 0.00 0.00 0.00 0.00 0.00 0.00 0.00 0.00 0.00 0.00 0.00 0.00 0.00 0.00 0.00 0.00 0.00 0.00 0.00 0.00 0.00 0.00 0.02 0.10 0.01 0.00 0.00 0.00 0.00 0.00 0.00 0.00
0.00 0.00 0.00 0.00 0.00 0.00 0.00 0.00 0.00 0.00 0.00 0.00 0.00 0.00 0.00 0.00 0.00 0.00 0.00 0.00 0.00 0.00 0.00 0.00 0.00 0.00 0.00 0.00 0.00 0.00 0.00 0.00 0.00 0.01 0.16 0.02 0.00 0.00 0.00 0.00 0.00 0.00 0.00
0.00 0.00 0.00 0.00 0.00 0.00 0.00 0.00 0.00 0.00 0.00 0.00 0.00 0.00 0.00 0.00 0.00 0.00 0.00 0.00 0.00 0.00 0.00 0.00 0.00 0.00 0.00 0.00 0.00 0.00 0.00 0.00 0.00 0.06 0.15 0.08 0.00 0.00 0.00 0.00 0.00 0.00 0.00
0.00 0.00 0.00 0.00 0.00 0.00 0.00 0.00 0.00 0.00 0.00 0.00 0.00 0.00 0.00 0.00 0.00 0.00 0.00 0.00 0.00 0.00 0.00 0.00 0.00 0.00 0.00 0.00 0.00 0.00 0.00 0.00 0.00 0.09 0.19 0.01 0.00 0.00 0.00 0.00 0.00 0.00 0.00
0.00 0.00 0.00 0.00 0.00 0.00 0.00 0.00 0.00 0.00 0.00 0.00 0.00 0.00 0.00 0.00 0.00 0.00 0.00 0.00 0.00 0.00 0.00 0.00 0.00 0.00 0.00 0.00 0.00 0.00 0.00 0.00 0.00 0.07 0.09 0.00 0.00 0.00 0.00 0.00 0.00 0.00 0.00
0.00 0.00 0.00 0.00 0.00 0.00 0.00 0.00 0.00 0.00 0.00 0.00 0.00 0.00 0.00 0.00 0.00 0.00 0.00 0.00 0.00 0.00 0.00 0.00 0.00 0.00 0.00 0.00 0.00 0.00 0.00 0.00 0.00 0.00 0.01 0.01 0.00 0.00 0.00 0.00 0.00 0.00 0.00
0.00 0.00 0.00 0.00 0.00 0.00 0.00 0.00 0.00 0.00 0.00 0.00 0.00 0.00 0.00 0.00 0.00 0.00 0.00 0.00 0.00 0.00 0.00 0.00 0.00 0.00 0.00 0.00 0.00 0.00 0.00 0.00 0.00 0.01 0.00 0.00 0.00 0.00 0.00 0.00 0.00 0.00 0.00
0.00 0.00 0.00 0.00 0.00 0.00 0.00 0.00 0.00 0.00 0.00 0.00 0.00 0.00 0.00 0.00 0.00 0.00 0.00 0.00 0.00 0.00 0.00 0.00 0.00 0.00 0.00 0.00 0.00 0.00 0.00 0.00 0.00 0.00 0.00 0.00 0.00 0.00 0.00 0.00 0.00 0.00 0.00
0.00 0.00 0.00 0.00 0.00 0.00 0.00 0.00 0.00 0.00 0.00 0.00 0.00 0.00 0.00 0.00 0.00 0.00 0.00 0.00 0.00 0.00 0.00 0.00 0.00 0.00 0.00 0.00 0.00 0.00 0.00 0.00 0.00 0.00 0.00 0.00 0.00 0.00 0.00 0.00 0.00 0.00 0.00
0.00 0.00 0.00 0.00 0.00 0.00 0.00 0.00 0.00 0.00 0.00 0.00 0.00 0.00 0.00 0.01 0.01 0.00 0.00 0.00 0.00 0.00 0.00 0.00 0.00 0.00 0.00 0.00 0.00 0.00 0.00 0.00 0.00 0.00 0.00 0.00 0.00 0.00 0.00 0.00 0.00 0.00 0.01
0.00 0.00 0.00 0.00 0.00 0.00 0.00 0.00 0.00 0.00 0.00 0.00 0.00 0.00 0.00 0.02 0.03 0.01 0.02 0.00 0.00 0.00 0.00 0.00 0.00 0.00 0.00 0.00 0.00 0.00 0.00 0.00 0.00 0.00 0.00 0.00 0.00 0.00 0.00 0.00 0.00 0.01 0.01
0.00 0.00 0.00 0.00 0.00 0.00 0.00 0.00 0.00 0.00 0.00 0.00 0.00 0.01 0.07 0.10 0.12 0.09 0.04 0.00 0.00 0.00 0.00 0.00 0.00 0.00 0.00 0.00 0.00 0.00 0.00 0.00 0.00 0.00 0.00 0.00 0.00 0.00 0.00 0.00 0.00 0.00 0.00
0.00 0.00 0.00 0.00 0.00 0.00 0.00 0.00 0.00 0.00 0.00 0.00 0.00 0.00 0.01 0.03 0.07 0.07 0.06 0.00 0.00 0.00 0.00 0.00 0.00 0.00 0.00 0.00 0.00 0.00 0.00 0.00 0.00 0.00 0.00 0.00 0.00 0.00 0.00 0.00 0.00 0.00 0.00
0.00 0.00 0.00 0.00 0.00 0.00 0.00 0.00 0.00 0.01 0.00 0.00 0.00 0.00 0.00 0.00 0.01 0.05 0.06 0.01 0.00 0.00 0.00 0.00 0.00 0.00 0.00 0.00 0.00 0.00 0.00 0.00 0.00 0.00 0.00 0.00 0.00 0.00 0.00 0.00 0.00 0.00 0.00
0.00 0.00 0.00 0.00 0.00 0.00 0.00 0.01 0.01 0.02 0.01 0.01 0.00 0.01 0.00 0.01 0.02 0.04 0.03 0.05 0.01 0.00 0.00 0.00 0.00 0.00 0.00 0.00 0.00 0.00 0.00 0.00 0.00 0.00 0.00 0.00 0.00 0.00 0.00 0.00 0.00 0.00 0.00
0.00 0.00 0.00 0.00 0.00 0.00 0.00 0.01 0.01 0.02 0.03 0.01 0.01 0.01 0.01 0.01 0.02 0.02 0.05 0.09 0.04 0.00 0.00 0.00 0.00 0.00 0.00 0.00 0.00 0.00 0.00 0.00 0.00 0.00 0.00 0.00 0.00 0.00 0.00 0.00 0.00 0.00 0.00
0.00 0.00 0.00 0.00 0.00 0.00 0.00 0.00 0.00 0.00 0.01 0.02 0.02 0.01 0.01 0.01 0.01 0.01 0.01 0.02 0.01 0.00 0.00 0.00 0.00 0.00 0.00 0.00 0.00 0.00 0.00 0.00 0.00 0.00 0.00 0.00 0.00 0.00 0.00 0.00 0.00 0.00 0.00
0.00 0.00 0.00 0.00 0.00 0.00 0.00 0.00 0.00 0.01 0.01 0.00 0.01 0.00 0.00 0.01 0.01 0.01 0.02 0.01 0.01 0.01 0.00 0.00 0.00 0.00 0.00 0.00 0.00 0.00 0.00 0.00 0.00 0.00 0.00 0.00 0.00 0.00 0.00 0.00 0.00 0.00 0.00
0.00 0.00 0.00 0.00 0.00 0.00 0.00 0.00 0.00 0.00 0.00 0.00 0.00 0.00 0.00 0.00 0.00 0.01 0.01 0.01 0.03 0.03 0.02 0.01 0.01 0.02 0.01 0.00 0.00 0.00 0.00 0.00 0.00 0.00 0.00 0.00 0.00 0.00 0.00 0.00 0.00 0.00 0.00
0.00 0.00 0.00 0.00 0.00 0.00 0.00 0.00 0.00 0.00 0.00 0.00 0.00 0.00 0.00 0.00 0.00 0.00 0.00 0.00 0.01 0.02 0.02 0.02 0.02 0.03 0.02 0.02 0.01 0.01 0.01 0.00 0.00 0.00 0.00 0.00 0.00 0.00 0.00 0.00 0.00 0.00 0.00
0.00 0.00 0.00 0.00 0.00 0.00 0.00 0.00 0.00 0.00 0.00 0.00 0.00 0.00 0.00 0.00 0.00 0.01 0.01 0.01 0.01 0.00 0.00 0.01 0.02 0.02 0.02 0.02 0.01 0.02 0.03 0.02 0.00 0.00 0.00 0.00 0.00 0.00 0.00 0.00 0.00 0.00 0.00
0.00 0.00 0.00 0.00 0.00 0.00 0.00 0.00 0.00 0.00 0.00 0.00 0.00 0.00 0.00 0.00 0.00 0.01 0.01 0.02 0.02 0.01 0.01 0.00 0.01 0.01 0.01 0.01 0.01 0.01 0.02 0.04 0.03 0.02 0.00 0.00 0.00 0.00 0.00 0.00 0.00 0.00 0.00
MSLP
1006.63 1008.31 1008.67 1009.20 1009.54 1009.64 1009.84 1010.33 1010.73 1011.24 1011.87 1012.31 1012.59 1012.92 1013.17 1013.54 1013.91 1014.19 1014.39 1014.64 1014.86 1015.13 1015.45 1015.62 1015.77 1015.96 1016.06 1016.13 1016.18 1016.21 1016.25 1016.32 1016.36 1016.39 1016.53 1016.70 1016.92 1017.07 1017.09 1016.95 1016.91 1017.28 1017.42
1006.21 1007.94 1008.71 1009.23 1009.79 1009.98 1010.04 1010.40 1010.91 1011.51 1012.02 1012.50 1012.87 1013.14 1013.50 1013.82 1014.21 1014.58 1014.80 1014.99 1015.19 1015.43 1015.83 1015.98 1016.12 1016.29 1016.35 1016.42 1016.53 1016.58 1016.58 1016.55 1016.58 1016.69 1016.80 1016.90 1017.02 1017.22 1017.37 1017.42 1017.44 1017.56 1017.54
1006.71 1007.90 1008.69 1009.42 1009.98 1010.31 1010.42 1010.73 1011.21 1011.83 1012.33 1012.74 1013.15 1013.44 1013.74 1014.11 1014.53 1014.86 1015.17 1015.38 1015.53 1015.82 1016.10 1016.36 1016.42 1016.52 1016.69 1016.80 1016.84 1016.85 1016.80 1016.72 1016.78 1016.86 1016.81 1016.76 1017.15 1017.34 1017.62 1017.66 1017.61 1017.66 1017.71
1007.24 1008.12 1008.76 1009.64 1010.11 1010.41 1010.79 1011.11 1011.57 1012.06 1012.47 1012.92 1013.38 1013.72 1014.00 1014.38 1014.71 1015.04 1015.36 1015.60 1015.79 1016.17 1016.34 1016.57 1016.75 1016.77 1016.92 1017.02 1017.04 1017.03 1016.97 1016.73 1016.85 1017.06 1017.12 1016.90 1016.99 1017.49 1017.67 1017.78 1017.73 1017.75 1017.75
1007.25 1008.09 1008.90 1009.69 1010.36 1010.75 1011.04 1011.48 1011.93 1012.29 1012.78 1013.10 1013.56 1013.90 1014.21 1014.58 1014.87 1015.20 1015.58 1015.83 1016.04 1016.32 1016.48 1016.79 1016.96 1017.11 1017.26 1017.24 1017.22 1017.18 1017.01 1016.69 1016.80 1017.06 1016.92 1016.65 1016.81 1017.62 1017.77 1017.99 1017.92 1017.90 1017.89
1007.05 1007.71 1009.28 1010.05 1010.53 1011.07 1011.40 1011.85 1012.26 1012.60 1013.00 1013.42 1013.79 1014.10 1014.46 1014.78 1015.06 1015.38 1015.71 1016.00 1016.14 1016.39 1016.55 1016.90 1017.11 1017.24 1017.34 1017.44 1017.40 1017.34 1016.98 1016.56 1016.98 1017.17 1017.19 1016.42 1016.57 1017.51 1017.72 1018.12 1018.19 1018.24 1018.20
1006.76 1008.21 1009.30 1010.09 1010.67 1011.22 1011.55 1012.00 1012.40 1012.77 1013.18 1013.61 1013.91 1014.16 1014.49 1014.87 1015.15 1015.45 1015.81 1016.12 1016.32 1016.44 1016.53 1016.83 1017.05 1017.21 1017.26 1017.40 1017.49 1017.46 1017.12 1016.69 1016.82 1017.07 1017.02 1017.23 1016.81 1017.30 1017.64 1018.19 1018.38 1018.51 1018.44
1007.39 1008.51 1009.54 1010.32 1010.81 1011.36 1011.72 1012.14 1012.66 1013.02 1013.48 1013.84 1014.15 1014.41 1014.67 1015.03 1015.23 1015.59 1015.85 1016.16 1016.33 1016.56 1016.75 1016.94 1017.12 1017.26 1017.32 1017.36 1017.29 1017.30 1017.14 1017.04 1016.77 1016.97 1016.87 1016.84 1017.16 1017.40 1017.62 1018.24 1018.53 1018.64 1018.63
1007.82 1008.72 1009.78 1010.44 1011.17 1011.63 1011.95 1012.25 1012.62 1013.02 1013.42 1013.77 1014.10 1014.45 1014.75 1015.10 1015.36 1015.62 1015.85 1016.13 1016.41 1016.67 1016.91 1017.05 1017.22 1017.28 1017.35 1017.45 1017.43 1017.30 1017.09 1016.83 1017.20 1017.00 1017.36 1017.07 1017.76 1017.40 1017.72 1018.30 1018.58 1018.75 1018.81
1007.78 1008.82 1009.72 1010.27 1010.86 1011.45 1011.95 1012.32 1012.63 1012.98 1013.41 1013.76 1014.13 1014.52 1014.86 1015.19 1015.42 1015.75 1016.08 1016.33 1016.56 1016.85 1017.09 1017.36 1017.42 1017.43 1017.53 1017.58 1017.57 1017.50 1017.19 1016.83 1016.86 1016.87 1017.32 1017.40 1017.58 1017.48 1017.89 1018.41 1018.52 1018.74 1018.85
1007.82 1008.63 1009.42 1010.07 1010.68 1011.22 1011.77 1012.33 1012.74 1013.02 1013.35 1013.75 1014.10 1014.43 1014.82 1015.08 1015.39 1015.64 1015.80 1016.09 1016.52 1016.81 1017.14 1017.33 1017.50 1017.53 1017.58 1017.66 1017.67 1017.65 1017.55 1017.20 1016.95 1016.90 1017.19 1017.70 1017.56 1017.76 1017.93 1018.40 1018.62 1018.57 1018.80
1007.69 1008.42 1009.18 1009.93 1010.59 1011.06 1011.16 1012.00 1012.54 1012.89 1013.27 1013.68 1013.99 1014.45 1014.64 1014.62 1014.89 1015.02 1015.42 1016.08 1016.48 1016.80 1017.02 1017.19 1017.23 1017.23 1017.25 1017.03 1017.11 1017.45 1017.50 1017.33 1017.40 1017.50 1017.72 1017.70 1017.67 1017.98 1018.20 1018.54 1018.65 1018.65 1018.81
1007.12 1008.01 1008.62 1009.29 1009.87 1010.55 1010.80 1011.75 1012.31 1012.69 1013.07 1013.39 1013.64 1014.06 1014.42 1014.43 1014.60 1015.00 1015.60 1016.13 1016.52 1016.81 1016.94 1017.13 1017.32 1017.21 1016.85 1016.66 1016.45 1016.50 1016.58 1016.64 1017.16 1017.80 1018.15 1017.95 1017.98 1017.89 1018.19 1018.44 1018.43 1018.48 1018.67
1005.94 1007.29 1008.17 1008.86 1009.61 1010.08 1010.10 1011.06 1011.57 1011.97 1012.42 1012.76 1013.06 1013.53 1013.98 1014.17 1014.33 1014.71 1015.17 1015.47 1015.70 1016.00 1016.30 1016.51 1016.76 1016.95 1016.65 1016.24 1016.25 1016.12 1016.18 1016.29 1016.73 1017.34 1017.92 1018.03 1018.10 1018.17 1018.38 1018.45 1018.48 1018.26 1018.56
1004.89 1006.14 1007.49 1008.41 1009.12 1009.72 1009.85 1010.21 1010.74 1011.19 1011.67 1011.93 1012.45 1012.96 1013.33 1013.70 1014.26 1014.35 1014.69 1014.78 1014.88 1015.00 1015.47 1015.80 1016.00 1016.24 1016.34 1016.12 1016.14 1016.05 1016.13 1016.39 1016.56 1017.08 1017.82 1017.87 1018.15 1018.52 1018.78 1018.85 1018.75 1018.65 1018.84
1004.33 1005.55 1006.51 1007.74 1008.66 1009.42 1009.84 1010.02 1010.20 1010.61 1011.08 1011.52 1011.94 1012.42 1012.87 1013.39 1013.85 1014.19 1014.22 1014.29 1014.13 1013.95 1014.50 1014.77 1015.25 1015.81 1016.10 1016.37 1016.47 1016.29 1016.35 1016.49 1016.41 1017.14 1017.75 1018.07 1018.28 1018.43 1018.65 1019.06 1019.27 1019.39 1019.34
1004.27 1005.27 1006.33 1007.24 1008.40 1009.24 1009.79 1009.94 1010.23 1010.30 1010.78 1011.34 1011.65 1011.95 1012.51 1013.14 1013.54 1013.82 1014.20 1014.04 1013.72 1013.61 1013.84 1014.31 1014.82 1015.29 1015.85 1016.08 1016.34 1016.40 1016.43 1016.49 1016.58 1016.78 1017.51 1017.92 1018.37 1018.76 1018.94 1018.99 1019.19 1019.51 1019.89
1004.52 1004.77 1005.85 1007.22 1008.46 1009.36 1010.03 1010.35 1010.58 1010.58 1010.76 1011.10 1011.49 1011.80 1012.10 1012.56 1013.01 1013.57 1014.09 1014.03 1013.74 1013.83 1013.76 1014.31 1014.70 1015.14 1015.50 1015.73 1015.86 1016.08 1016.47 1016.59 1016.70 1016.96 1017.58 1018.05 1018.43 1018.75 1019.22 1019.26 1019.46 1019.61 1019.65
1005.06 1005.59 1005.88 1007.08 1008.45 1009.36 1010.37 1010.74 1010.94 1011.05 1011.36 1011.33 1011.23 1011.55 1011.98 1012.30 1012.70 1013.19 1013.73 1013.80 1013.81 1013.82 1013.95 1014.27 1014.64 1015.08 1015.48 1015.47 1015.47 1015.66 1015.94 1016.24 1016.48 1016.46 1017.51 1017.98 1018.21 1018.51 1019.10 1019.40 1019.29 1019.50 1019.79
1006.11 1006.58 1006.94 1007.61 1008.60 1009.56 1010.34 1010.87 1011.18 1011.30 1011.50 1011.67 1011.74 1011.95 1012.05 1012.36 1012.50 1012.74 1013.16 1013.52 1013.70 1013.95 1013.98 1014.00 1014.23 1014.57 1014.87 1014.98 1014.94 1015.23 1015.51 1015.84 1016.16 1016.42 1016.65 1017.13 1017.75 1018.09 1018.75 1019.32 1019.42 1019.64 1019.67
1006.71 1006.95 1007.29 1008.02 1008.82 1009.31 1010.10 1010.83 1011.22 1011.43 1011.64 1011.87 1012.08 1012.10 1012.24 1012.37 1012.48 1012.67 1013.00 1013.26 1013.50 1013.80 1014.02 1014.24 1014.37 1014.75 1015.00 1014.86 1015.26 1015.29 1015.46 1015.52 1015.74 1015.85 1016.33 1016.89 1017.24 1017.61 1018.14 1018.83 1019.16 1019.35 1019.73
1007.44 1007.53 1007.69 1007.95 1008.26 1008.82 1009.36 1010.10 1010.59 1011.01 1011.20 1011.47 1011.72 1011.82 1012.10 1012.35 1012.53 1012.81 1013.03 1013.29 1013.53 1013.83 1014.02 1014.11 1014.17 1014.33 1014.43 1014.62 1014.95 1015.33 1015.72 1015.91 1015.70 1015.47 1015.65 1016.18 1016.83 1017.18 1017.44 1017.78 1018.19 1018.82 1019.28
1008.37 1008.37 1008.45 1008.72 1008.92 1009.14 1009.40 1009.78 1010.24 1010.64 1011.04 1011.25 1011.39 1011.52 1011.69 1011.84 1012.04 1012.41 1012.68 1013.00 1013.23 1013.47 1013.65 1013.91 1013.84 1013.98 1013.98 1014.03 1013.99 1014.27 1015.17 1015.02 1015.22 1015.37 1015.21 1015.19 1015.68 1016.04 1016.27 1016.64 1017.15 1017.65 1018.39
1009.09 1009.13 1009.21 1009.34 1009.55 1009.71 1009.84 1010.00 1010.25 1010.33 1010.72 1010.91 1010.86 1011.15 1011.32 1011.36 1011.81 1011.95 1012.08 1012.53 1013.06 1013.32 1013.43 1013.54 1013.56 1013.81 1013.89 1013.89 1013.72 1013.44 1013.26 1013.49 1014.27 1014.78 1014.91 1014.98 1015.01 1015.26 1015.51 1015.90 1016.49 1017.01 1017.59
1009.45 1009.70 1009.72 1009.76 1009.99 1010.20 1010.29 1010.46 1010.72 1010.87 1011.03 1011.00 1010.96 1010.97 1010.95 1011.13 1011.18 1011.58 1011.70 1012.06 1012.45 1012.84 1013.12 1013.26 1013.30 1013.56 1013.52 1013.61 1013.58 1013.33 1013.08 1013.12 1013.04 1013.42 1013.89 1014.25 1014.68 1014.75 1015.06 1015.44 1016.03 1016.66 1017.21
1009.64 1009.89 1010.00 1009.99 1010.25 1010.59 1010.88 1011.03 1011.16 1011.30 1011.40 1011.45 1011.48 1011.50 1011.38 1011.13 1011.05 1011.34 1011.57 1011.99 1012.33 1012.59 1012.89 1012.91 1012.96 1012.99 1013.14 1013.15 1013.13 1013.07 1012.73 1012.85 1012.64 1012.54 1012.61 1013.24 1013.50 1014.00 1014.39 1014.84 1015.31 1016.00 1016.60
Thickness
5803 5791 5790 5786 5783 5782 5779 5774 5770 5764 5758 5755 5752 5748 5746 5742 5739 5735 5733 5730 5727 5725 5721 5719 5716 5713 5711 5710 5710 5709 5709 5708 5707 5707 5706 5704 5702 5702 5702 5704 5703 5700 5699
5806 5792 5788 5784 5780 5778 5776 5772 5767 5760 5755 5751 5748 5745 5742 5739 5735 5731 5728 5726 5723 5720 5717 5714 5712 5709 5708 5706 5705 5704 5704 5704 5704 5703 5701 5701 5700 5699 5697 5697 5698 5696 5696
5799 5790 5786 5782 5776 5773 5771 5768 5763 5757 5751 5747 5744 5741 5738 5735 5730 5726 5723 5721 5719 5715 5713 5709 5708 5705 5703 5701 5701 5700 5700 5701 5701 5701 5700 5700 5697 5695 5693 5693 5694 5693 5693
5794 5787 5783 5777 5772 5769 5766 5763 5759 5753 5749 5744 5740 5737 5734 5730 5727 5723 5720 5717 5715 5711 5709 5706 5703 5702 5700 5698 5698 5697 5697 5699 5699 5697 5696 5697 5695 5691 5690 5689 5691 5691 5692
5791 5785 5781 5775 5768 5764 5762 5758 5753 5749 5744 5741 5737 5733 5731 5726 5723 5720 5716 5714 5711 5708 5706 5703 5701 5698 5696 5696 5696 5695 5696 5698 5698 5694 5695 5696 5695 5689 5688 5686 5687 5688 5689
5791 5787 5776 5769 5764 5758 5756 5752 5748 5744 5740 5736 5732 5729 5726 5723 5720 5717 5713 5710 5708 5705 5703 5700 5698 5696 5694 5693 5692 5692 5695 5698 5694 5690 5691 5697 5695 5688 5687 5684 5684 5684 5684
5791 5780 5772 5765 5759 5753 5751 5748 5745 5741 5736 5732 5730 5728 5724 5720 5717 5714 5710 5707 5704 5703 5702 5700 5698 5695 5694 5692 5691 5691 5693 5696 5694 5690 5691 5688 5693 5689 5686 5682 5680 5679 5680
5781 5773 5765 5758 5754 5748 5746 5744 5739 5735 5731 5728 5725 5723 5720 5717 5715 5711 5709 5705 5703 5701 5699 5698 5696 5694 5693 5692 5691 5691 5692 5692 5693 5690 5690 5691 5689 5687 5685 5680 5677 5677 5677
5775 5767 5758 5753 5747 5743 5740 5738 5736 5732 5729 5726 5723 5720 5717 5714 5712 5709 5707 5704 5700 5698 5696 5695 5693 5692 5691 5689 5689 5689 5689 5692 5689 5688 5684 5688 5682 5685 5682 5677 5675 5673 5674
5771 5763 5756 5751 5746 5741 5738 5735 5733 5730 5727 5724 5720 5717 5714 5712 5710 5706 5702 5700 5698 5696 5693 5691 5690 5690 5688 5687 5686 5685 5687 5690 5689 5687 5683 5682 5681 5681 5677 5673 5672 5671 5672
5764 5759 5754 5749 5744 5740 5736 5732 5729 5726 5724 5720 5718 5715 5713 5709 5707 5705 5702 5701 5697 5694 5691 5689 5687 5687 5685 5684 5682 5681 5681 5684 5684 5686 5683 5678 5678 5677 5675 5671 5670 5670 5670
5756 5755 5752 5748 5743 5738 5738 5732 5727 5724 5721 5718 5715 5711 5709 5709 5707 5707 5703 5698 5695 5692 5690 5688 5688 5687 5687 5687 5685 5681 5679 5679 5678 5677 5676 5675 5675 5673 5671 5669 5668 5668 5667
5759 5755 5753 5749 5745 5740 5739 5730 5726 5722 5719 5717 5714 5710 5707 5707 5706 5704 5699 5695 5692 5689 5688 5686 5685 5685 5687 5687 5687 5687 5684 5682 5678 5673 5669 5671 5670 5670 5668 5667 5667 5667 5666
5763 5755 5751 5748 5743 5741 5740 5732 5727 5725 5722 5718 5716 5712 5707 5706 5705 5701 5699 5696 5695 5692 5690 5688 5685 5683 5685 5688 5687 5687 5685 5683 5680 5673 5669 5667 5666 5665 5664 5663 5663 5666 5664
5765 5761 5751 5748 5743 5739 5738 5737 5732 5729 5724 5722 5718 5713 5710 5707 5704 5702 5700 5699 5697 5697 5692 5691 5688 5685 5685 5685 5685 5685 5682 5679 5678 5675 5667 5666 5662 5659 5657 5657 5659 5660 5659
5764 5761 5758 5750 5744 5738 5735 5735 5733 5729 5725 5721 5719 5714 5709 5706 5703 5700 5700 5700 5700 5702 5698 5695 5691 5687 5683 5679 5679 5679 5678 5675 5675 5671 5666 5661 5659 5656 5655 5653 5651 5649 5651
5766 5758 5756 5750 5743 5736 5731 5730 5729 5726 5723 5719 5716 5714 5709 5703 5700 5698 5697 5697 5699 5700 5698 5695 5690 5685 5681 5677 5675 5674 5673 5671 5670 5665 5667 5658 5656 5650 5648 5648 5647 5645 5642
5762 5760 5753 5749 5736 5729 5724 5722 5720 5719 5716 5715 5712 5710 5707 5703 5698 5695 5691 5692 5692 5691 5693 5690 5688 5683 5679 5677 5675 5672 5668 5666 5664 5660 5659 5655 5651 5648 5643 5641 5640 5639 5638
5754 5748 5748 5741 5730 5722 5715 5713 5711 5709 5708 5708 5708 5705 5702 5699 5695 5691 5687 5686 5685 5685 5685 5683 5679 5676 5671 5671 5671 5670 5668 5664 5662 5659 5653 5651 5648 5644 5639 5635 5636 5634 5632
5741 5735 5733 5731 5723 5716 5710 5706 5704 5702 5700 5699 5699 5697 5696 5693 5691 5689 5685 5680 5679 5678 5678 5677 5675 5672 5669 5669 5668 5664 5664 5661 5657 5655 5652 5650 5645 5642 5638 5631 5629 5628 5627
5729 5729 5726 5721 5716 5711 5705 5698 5694 5692 5692 5690 5690 5689 5689 5687 5685 5683 5680 5677 5672 5670 5667 5666 5665 5660 5658 5659 5655 5653 5653 5655 5652 5653 5644 5643 5641 5638 5635 5629 5625 5623 5620
5716 5717 5716 5716 5714 5711 5706 5700 5695 5691 5690 5687 5685 5684 5681 5679 5677 5673 5671 5668 5665 5660 5659 5658 5656 5654 5652 5651 5643 5640 5632 5637 5643 5644 5641 5638 5634 5631 5630 5627 5624 5620 5617
5699 5701 5701 5701 5700 5698 5699 5696 5692 5688 5684 5682 5681 5678 5676 5673 5670 5666 5663 5660 5657 5654 5651 5648 5647 5646 5643 5642 5642 5635 5622 5626 5630 5631 5634 5634 5632 5631 5629 5625 5622 5619 5615
5685 5687 5687 5687 5686 5684 5685 5684 5682 5681 5676 5675 5675 5673 5669 5666 5662 5659 5657 5653 5648 5644 5641 5638 5637 5634 5631 5629 5630 5632 5634 5631 5617 5615 5624 5623 5624 5624 5623 5620 5616 5612 5609
5674 5672 5673 5674 5672 5671 5671 5671 5668 5666 5664 5663 5663 5662 5661 5659 5657 5652 5649 5644 5640 5636 5633 5630 5627 5622 5620 5619 5618 5618 5620 5619 5620 5614 5609 5615 5611 5612 5611 5609 5607 5602 5596
5662 5661 5661 5662 5661 5658 5657 5655 5653 5651 5649 5648 5647 5645 5645 5646 5646 5642 5636 5633 5629 5625 5620 5618 5616 5614 5609 5608 5606 5605 5607 5605 5608 5605 5602 5601 5603 5600 5601 5598 5597 5593 5588